Date String (YYYY-MM-DD hh:mm:ss) UTC,Instrument flags,absolute air pressure of the measurement (hPa),sample flow rate (lpm),inlet stack bypass flow (lpm),air temperature of the measurement (°C),ambient temperature measured by the external sensor (°C),aerosol sample conditioner tube jacket temperature (°C),OPC LED temperature (°C),internal box temperature (°C),relative humidity of the measurement (%),span deviation,mass concentration of particles derived from Lorenz-Mie calculation of OPC scattering (μg/m³),mass concentration of particles derived from Lorenz-Mie calculation of OPC scattering (μg/m³),mass concentration of particles derived from Lorenz-Mie calculation of OPC scattering (μg/m³)
DateTimeUTC,F1_M11,P_M11,Q1_M11,Q2_M11,T1_M11,T2_M11,T3_M11,T4_M11,T5_M11,U1_M11,ZSPAN_M11,X0_M11,X2_M11,X1_M11
2023-09-09 10:00:00,SystemResetWarning,0834.8,5.00,000.00,028.3,026.2,000.0,036.8,029.7,10.9,0000.0,0003.54,0001.43,0000.94
2023-09-09 10:01:00,SystemResetWarning,0834.9,5.00,000.00,028.3,026.4,000.0,036.8,029.8,10.7,0000.0,0003.17,0001.40,0000.93
2023-09-09 10:02:00,SystemResetWarning,0835.1,4.99,000.00,028.3,026.6,000.0,036.8,029.8,10.7,0000.0,0003.35,0001.45,0000.94
2023-09-09 10:03:00,SystemResetWarning,0834.7,5.00,000.00,028.3,026.8,000.0,036.8,029.8,10.6,0000.0,0004.40,0001.46,0000.94
2023-09-09 10:04:00,SystemResetWarning,0834.7,5.00,000.00,028.3,026.9,000.0,036.8,029.9,10.7,0000.0,0004.42,0001.48,0000.95
2023-09-09 10:05:00,SystemResetWarning,0834.7,4.99,000.00,028.4,027.0,000.0,036.8,029.9,10.6,0000.0,0004.98,0001.54,0000.96
2023-09-09 10:06:00,SystemResetWarning,0834.7,4.99,000.00,028.4,027.1,000.0,036.8,029.9,10.6,0000.0,0005.18,0001.58,0000.96
2023-09-09 10:07:00,SystemResetWarning,0834.7,5.00,000.00,028.4,027.2,000.0,036.8,030.0,10.7,0000.0,0005.27,0001.58,0000.97
2023-09-09 10:08:00,SystemResetWarning,0834.7,5.00,000.00,028.4,027.3,000.0,036.8,030.0,10.6,0000.0,0006.23,0001.55,0000.97
2023-09-09 10:09:00,SystemResetWarning,0834.7,5.01,000.00,028.5,027.3,000.0,036.8,030.1,10.6,0000.0,0007.66,0001.55,0000.97
2023-09-09 10:10:00,SystemResetWarning,0834.7,5.01,000.00,028.5,027.4,000.0,036.8,030.1,10.5,0000.0,0007.74,0001.55,0000.97
2023-09-09 10:11:00,SystemResetWarning,0834.8,5.00,000.00,028.5,027.4,000.0,036.9,030.1,10.5,0000.0,0007.65,0001.55,0000.98
2023-09-09 10:12:00,SystemResetWarning,0834.8,4.99,000.00,028.5,027.5,000.0,036.9,030.1,10.5,0000.0,0007.51,0001.56,0000.98
2023-09-09 10:13:00,SystemResetWarning,0834.7,4.99,000.00,028.6,027.5,000.0,036.9,030.2,10.5,0000.0,0007.41,0001.52,0000.99
2023-09-09 10:14:00,SystemResetWarning,0834.7,4.99,000.00,028.6,027.5,000.0,036.9,030.2,10.5,0000.0,0006.67,0001.50,0000.99
2023-09-09 10:15:00,SystemResetWarning,0834.7,5.00,000.00,028.6,027.6,000.0,036.9,030.2,10.5,0000.0,0006.16,0001.48,0000.98
2023-09-09 10:16:00,SystemResetWarning,0834.9,5.00,000.00,028.7,027.3,000.0,036.9,030.2,10.5,0000.0,0005.67,0001.45,0000.98
2023-09-09 10:17:00,SystemResetWarning,0834.7,5.00,000.00,028.6,025.6,000.0,036.9,029.9,10.5,0000.0,0005.32,0001.40,0000.97
2023-09-09 10:18:00,SystemResetWarning,0834.8,5.01,000.00,028.5,024.7,000.0,036.8,029.8,10.6,0000.0,0005.09,0001.37,0000.98
2023-09-09 10:19:00,SystemResetWarning,0834.7,5.01,000.00,028.5,024.7,000.0,036.8,029.6,10.6,0000.0,0004.26,0001.36,0000.97
2023-09-09 10:20:00,SystemResetWarning,0834.7,4.99,000.00,028.3,025.0,000.0,036.8,029.5,10.7,0000.0,0002.63,0001.34,0000.97
2023-09-09 10:21:00,SystemResetWarning,0834.7,5.00,000.00,028.3,025.4,000.0,036.8,029.5,10.8,0000.0,0002.20,0001.35,0000.98
2023-09-09 10:22:00,SystemResetWarning,0834.7,5.00,000.00,028.3,025.7,000.0,036.8,029.6,10.8,0000.0,0002.24,0001.39,0000.98
2023-09-09 10:23:00,SystemResetWarning,0834.7,5.01,000.00,028.3,026.0,000.0,036.8,029.7,10.9,0000.0,0002.24,0001.39,0000.98
2023-09-09 10:24:00,SystemResetWarning,0834.7,4.99,000.00,028.3,026.2,000.0,036.8,029.7,11.0,0000.0,0002.32,0001.42,0000.97
2023-09-09 10:25:00,SystemResetWarning,0834.8,4.99,000.00,028.3,026.5,000.0,036.8,029.7,11.0,0000.0,0002.40,0001.47,0000.97
2023-09-09 10:26:00,SystemResetWarning,0834.7,5.00,000.00,028.3,026.6,000.0,036.8,029.8,10.9,0000.0,0002.37,0001.48,0000.97
2023-09-09 10:27:00,SystemResetWarning,0834.9,5.00,000.00,028.3,026.8,000.0,036.8,029.8,10.9,0000.0,0002.27,0001.44,0000.97
2023-09-09 10:28:00,SystemResetWarning,0834.8,5.00,000.00,028.3,026.9,000.0,036.8,029.9,10.9,0000.0,0002.33,0001.47,0000.97
2023-09-09 10:29:00,SystemResetWarning,0834.9,5.00,000.00,028.4,027.0,000.0,036.8,029.9,10.8,0000.0,0002.35,0001.48,0000.97
2023-09-09 10:30:00,SystemResetWarning,0834.9,5.00,000.00,028.4,027.1,000.0,036.8,029.9,10.8,0000.0,0002.38,0001.49,0000.97
2023-09-09 10:31:00,SystemResetWarning,0835.0,5.00,000.00,028.4,027.1,000.0,036.8,030.0,10.8,0000.0,0002.36,0001.50,0000.97
2023-09-09 10:32:00,SystemResetWarning,0834.7,4.99,000.00,028.4,027.2,000.0,036.8,030.0,10.8,0000.0,0002.32,0001.46,0000.97
2023-09-09 10:33:00,SystemResetWarning,0834.7,4.99,000.00,028.4,027.3,000.0,036.8,030.0,10.9,0000.0,0002.46,0001.45,0000.98
2023-09-09 10:34:00,SystemResetWarning,0834.8,5.00,000.00,028.5,027.3,000.0,036.8,030.0,10.9,0000.0,0002.56,0001.49,0000.99
2023-09-09 10:35:00,SystemResetWarning,0834.7,5.01,000.00,028.5,027.3,000.0,036.8,030.1,11.0,0000.0,0002.61,0001.49,0000.99
2023-09-09 10:36:00,SystemResetWarning,0834.7,5.01,000.00,028.5,027.4,000.0,036.9,030.1,10.9,0000.0,0002.54,0001.46,0001.00
2023-09-09 10:37:00,SystemResetWarning,0834.9,5.01,000.00,028.5,027.4,000.0,036.9,030.1,10.8,0000.0,0002.67,0001.49,0001.01
2023-09-09 10:38:00,SystemResetWarning,0834.8,4.99,000.00,028.6,027.5,000.0,036.9,030.2,10.8,0000.0,0002.82,0001.53,0001.02
2023-09-09 10:39:00,SystemResetWarning,0834.7,4.99,000.00,028.6,027.5,000.0,036.9,030.2,10.8,0000.0,0002.94,0001.56,0001.03
2023-09-09 10:40:00,SystemResetWarning,0834.7,5.01,000.00,028.6,027.5,000.0,037.0,030.2,10.8,0000.0,0003.62,0001.59,0001.03
2023-09-09 10:41:00,SystemResetWarning,0834.8,5.01,000.00,028.6,027.6,000.0,037.0,030.2,10.8,0000.0,0004.16,0001.65,0001.05
2023-09-09 10:42:00,SystemResetWarning,0835.4,5.01,000.00,028.7,027.6,000.0,037.0,030.2,10.8,0000.0,0004.18,0001.67,0001.06
2023-09-09 10:43:00,SystemResetWarning,0835.3,5.00,000.00,028.7,027.6,000.0,037.0,030.3,10.8,0000.0,0004.18,0001.67,0001.06
2023-09-09 10:44:00,SystemResetWarning,0835.3,4.99,000.00,028.7,027.0,000.0,037.0,030.2,10.8,0000.0,0003.93,0001.66,0001.06
2023-09-09 10:45:00,SystemResetWarning,0835.1,4.99,000.00,028.7,025.2,000.0,036.9,030.0,10.8,0000.0,0003.82,0001.62,0001.06
2023-09-09 10:46:00,SystemResetWarning,0834.7,5.02,000.00,028.6,024.7,000.0,036.8,029.9,10.8,0000.0,0003.91,0001.62,0001.08
2023-09-09 10:47:00,SystemResetWarning,0834.7,4.99,000.00,028.5,024.8,000.0,036.8,029.6,11.0,0000.0,0003.92,0001.62,0001.09
2023-09-09 10:48:00,SystemResetWarning,0834.7,5.00,000.00,028.4,025.1,000.0,036.8,029.6,11.2,0000.0,0003.82,0001.59,0001.09
2023-09-09 10:49:00,SystemResetWarning,0834.7,5.00,000.00,028.3,025.5,000.0,036.8,029.6,11.0,0000.0,0003.82,0001.60,0001.10
2023-09-09 10:50:00,SystemResetWarning,0834.9,5.01,000.00,028.3,025.8,000.0,036.8,029.6,11.0,0000.0,0004.07,0001.65,0001.11
2023-09-09 10:51:00,SystemResetWarning,0835.0,5.00,000.00,028.3,026.0,000.0,036.8,029.7,11.1,0000.0,0003.84,0001.62,0001.12
2023-09-09 10:52:00,SystemResetWarning,0835.2,4.99,000.00,028.3,026.3,000.0,036.8,029.7,11.2,0000.0,0003.72,0001.56,0001.11
2023-09-09 10:53:00,SystemResetWarning,0834.9,5.00,000.00,028.3,026.5,000.0,036.8,029.8,11.2,0000.0,0003.68,0001.55,0001.11
2023-09-09 10:54:00,SystemResetWarning,0834.9,5.00,000.00,028.3,026.7,000.0,036.8,029.8,11.3,0000.0,0003.66,0001.55,0001.11
2023-09-09 10:55:00,SystemResetWarning,0835.0,5.01,000.00,028.3,026.8,000.0,036.8,029.9,11.4,0000.0,0003.70,0001.54,0001.11
2023-09-09 10:56:00,SystemResetWarning,0835.0,5.00,000.00,028.4,026.9,000.0,036.8,029.9,11.2,0000.0,0003.81,0001.57,0001.11
2023-09-09 10:57:00,SystemResetWarning,0835.0,5.00,000.00,028.4,027.0,000.0,036.8,029.9,11.2,0000.0,0003.94,0001.59,0001.11
2023-09-09 10:58:00,SystemResetWarning,0835.0,5.00,000.00,028.4,027.1,000.0,036.8,030.0,11.3,0000.0,0004.23,0001.63,0001.11
2023-09-09 10:59:00,SystemResetWarning,0835.1,5.00,000.00,028.4,027.2,000.0,036.8,030.0,11.1,0000.0,0004.34,0001.65,0001.11
